Weather History for Worland, WY

Change the Weather History Date:

Monday, March 4, 2013

  Actual Average Record
Temperature  
Mean Temperature 23 °F 32 °F  
Max Temperature 32 °F 46 °F 72 °F (2000)
Min Temperature 14 °F 18 °F -28 °F (1989)
Degree Days  
Heating Degree Days 42 33  
Month to date heating degree days 134 136  
Since 1 July heating degree days 5716 6137  
Cooling Degree Days 0 0  
Month to date cooling degree days 0 0  
Year to date cooling degree days 0 0  
Moisture  
Dew Point 12 °F    
Average Humidity 63    
Maximum Humidity 80    
Minimum Humidity 45    
Precipitation  
Precipitation 0.00 in 0.01 in 0.29 in (1998)
Month to date precipitation 0.00 0.04  
Year to date precipitation 0.39 0.46  
Sea Level Pressure  
Sea Level Pressure 30.19 in    
Wind  
Wind Speed 16 mph (NNW)    
Max Wind Speed 29 mph    
Max Gust Speed 43 mph    
Visibility 10 miles    
Events      
T = Trace of Precipitation, MM = Missing Value Source: NWS Daily Summary

Daily Weather History Graph

Daily Weather History Graph

Search for Another Location

Airport:

Trip Planner

Search our weather history database for the weather conditions in past years. The results will help you decide how hot, cold, wet, or windy it might be!

Date:

Astronomy

Mar. 04, 2013 Rise Set
Actual Time 6:42 AM MST 6:04 PM MST
Civil Twilight 6:14 AM MST 6:33 PM MST
Nautical Twilight 5:40 AM MST 7:06 PM MST
Astronomical Twilight 5:07 AM MST 7:40 PM MST
Moon 1:04 AM MST (3/4) 10:40 AM MST (3/4)
Length of Visible Light 12h 19m
Length of Day
11h 21m
Waning Gibbous, 51% of the Moon is Illuminated
Mar 4
Waning Gibbous
Mar 4
Last Quarter
Mar 11
New
Mar 19
First Quarter
Mar 27
Full

Hourly Weather History & Observations

Time (MST) Temp. Windchill Dew Point Humidity Pressure Visibility Wind Dir Wind Speed Gust Speed Precip Events Conditions
12:53 AM 32.0 °F 26.4 °F 14.0 °F 48% 29.87 in 10.0 mi North 5.8 mph - N/A   Overcast
1:53 AM 30.9 °F 27.5 °F 16.0 °F 54% 29.89 in 10.0 mi NNE 3.5 mph - N/A   Overcast
2:53 AM 28.9 °F 18.2 °F 15.1 °F 56% 29.91 in 10.0 mi North 13.8 mph 26.5 mph N/A   Overcast
3:53 AM 27.0 °F 15.6 °F 14.0 °F 58% 29.93 in 10.0 mi North 13.8 mph - N/A   Overcast
4:53 AM 26.1 °F 9.8 °F 10.0 °F 51% 29.94 in 10.0 mi North 28.8 mph 39.1 mph N/A   Clear
5:53 AM 25.0 °F 8.9 °F 9.0 °F 51% 29.98 in 10.0 mi North 26.5 mph 38.0 mph N/A   Clear
6:53 AM 24.1 °F 7.4 °F 8.1 °F 51% 30.06 in 10.0 mi North 27.6 mph 39.1 mph N/A   Mostly Cloudy
7:53 AM 24.1 °F 9.8 °F 10.0 °F 55% 30.12 in 10.0 mi North 19.6 mph 34.5 mph N/A   Clear
8:53 AM 24.1 °F 7.4 °F 10.9 °F 57% 30.16 in 10.0 mi North 27.6 mph 38.0 mph N/A   Scattered Clouds
9:53 AM 26.1 °F 11.0 °F 12.9 °F 58% 30.18 in 10.0 mi North 24.2 mph 34.5 mph N/A   Overcast
10:53 AM 25.0 °F 8.9 °F 12.9 °F 60% 30.20 in 10.0 mi North 26.5 mph 33.4 mph N/A   Scattered Clouds
11:53 AM 26.1 °F 10.7 °F 10.9 °F 53% 30.22 in 10.0 mi North 25.3 mph 38.0 mph N/A   Clear
12:53 PM 26.1 °F 10.1 °F 12.9 °F 58% 30.23 in 10.0 mi North 27.6 mph 35.7 mph N/A   Mostly Cloudy
1:53 PM 27.0 °F 13.5 °F 12.9 °F 56% 30.25 in 10.0 mi NNW 19.6 mph 28.8 mph N/A   Clear
2:53 PM 28.0 °F 14.6 °F 12.0 °F 51% 30.27 in 10.0 mi NNW 20.7 mph 27.6 mph N/A   Clear
3:53 PM 28.0 °F 14.9 °F 12.0 °F 51% 30.30 in 10.0 mi North 19.6 mph 27.6 mph N/A   Clear
4:53 PM 27.0 °F 16.7 °F 10.9 °F 51% 30.34 in 10.0 mi North 11.5 mph - N/A   Clear
5:53 PM 25.0 °F 13.6 °F 10.0 °F 53% 30.36 in 10.0 mi North 12.7 mph - N/A   Clear
6:53 PM 24.1 °F - 12.0 °F 60% 30.39 in 10.0 mi Calm Calm - N/A   Clear
7:53 PM 21.0 °F 14.6 °F 12.9 °F 71% 30.40 in 10.0 mi WSW 4.6 mph - N/A   Clear
8:53 PM 21.0 °F 10.6 °F 12.0 °F 68% 30.41 in 10.0 mi West 9.2 mph - N/A   Clear
9:53 PM 18.0 °F 9.8 °F 12.0 °F 78% 30.42 in 10.0 mi SSW 5.8 mph - N/A   Clear
10:53 PM 18.0 °F 11.1 °F 12.0 °F 78% 30.43 in 10.0 mi SW 4.6 mph - N/A   Clear